GWILZ YBCG-YBSU

Flight info

Callsign GWILZ
Flight time N/A
Altitude 24000
Route LAGOB H252 BN/N0470F200 W247 BUGNU/N0464F190 DCT ITIDE
Aircraft C750/M-SBDE3FGHRWXY/S

Departure

Time N/A
Airport Gold Coast Airport (YBCG)

Arrival

Time 2026-05-09 12:14
Airport Sunshine Coast Airport (YBSU)
Time Latitude Longitude Altitude Speed Heading
2026-05-09 12:10 -26.49976 153.00294 2065 ft 147 kts 142°
2026-05-09 12:11 -26.50777 153.00980 1872 ft 140 kts 143°
2026-05-09 12:11 -26.51514 153.01612 1672 ft 128 kts 143°
2026-05-09 12:11 -26.52189 153.02193 1741 ft 123 kts 143°
2026-05-09 12:11 -26.52887 153.02791 1710 ft 124 kts 143°
2026-05-09 12:12 -26.53574 153.03402 1384 ft 132 kts 142°
2026-05-09 12:12 -26.54209 153.03991 1135 ft 125 kts 142°
2026-05-09 12:12 -26.54892 153.04583 885 ft 126 kts 146°
2026-05-09 12:12 -26.55609 153.05182 685 ft 130 kts 146°
2026-05-09 12:13 -26.56325 153.05794 522 ft 131 kts 144°
2026-05-09 12:13 -26.57056 153.06418 373 ft 132 kts 145°
2026-05-09 12:13 -26.57806 153.07035 171 ft 134 kts 145°
2026-05-09 12:13 -26.58521 153.07635 29 ft 124 kts 144°
2026-05-09 12:14 -26.59150 153.08167 17 ft 103 kts 142°
2026-05-09 12:14 -26.59646 153.08595 22 ft 79 kts 142°
2026-05-09 12:14 -26.59897 153.08803 20 ft 53 kts 144°
2026-05-09 12:14 -26.60139 153.09001 16 ft 28 kts 146°
2026-05-09 12:15 -26.60294 153.09134 17 ft 23 kts 136°
2026-05-09 12:15 -26.60405 153.09165 16 ft 17 kts 197°
2026-05-09 12:15 -26.60495 153.09133 18 ft 11 kts 190°
2026-05-09 12:15 -26.60568 153.09120 20 ft 11 kts 193°
2026-05-09 12:16 -26.60650 153.09096 22 ft 14 kts 194°
2026-05-09 12:16 -26.60754 153.09069 22 ft 16 kts 194°
2026-05-09 12:16 -26.60863 153.09038 23 ft 16 kts 195°
2026-05-09 12:16 -26.60958 153.09013 19 ft 12 kts 195°
2026-05-09 12:17 -26.60993 153.08945 16 ft 13 kts 286°
2026-05-09 12:17 -26.60973 153.08892 15 ft 1 kts 307°
2026-05-09 12:17 -26.60973 153.08884 15 ft 2 kts 268°
2026-05-09 12:17 -26.60974 153.08864 16 ft 1 kts 263°
2026-05-09 12:18 -26.60979 153.08853 18 ft 5 kts 243°
2026-05-09 12:18 -26.60981 153.08812 16 ft 5 kts 298°
2026-05-09 12:18 -26.60962 153.08816 16 ft 2 kts 39°
2026-05-09 12:18 -26.60952 153.08830 16 ft 2 kts 55°
2026-05-09 12:19 -26.60952 153.08831 16 ft 0 kts 55°